Regional Weather Roundup
Issued by NWS Sterling, VA

Home | Current Version | Previous Version | Graphics & Text | Print | Product List | Glossary On
Versions: 1 2 3 4 5 6 7 8 9 10 11 12 13 14 15 16 17 18 19 20 21 22 23 24 25 26 27 28 29 30 31 32 33 34 35 36 37 38 39 40 41 42 43 44 45 46 47 48 49 50
000
ASUS41 KLWX 102210
RWRLWX

REGIONAL WEATHER ROUNDUP
NATIONAL WEATHER SERVICE BALTIMORE MD/WASHINGTON DC
500 PM EST WED FEB 10 2016

Note: "FAIR" indicates few or no clouds below 12,000 feet
with no significant weather and/or obstructions to visibility.
 TC=TEMPERATURE CELSIUS

 * =Non NWS site. Station does not report precipitation (e.g. rain,
    snow, etc.), thunder, or fog.

DCZ001-MDZ009-015-VAZ040>042-051-053>054-102300-
WASHINGTON METRO

CITY           SKY/WX    TMP DP  RH WIND       PRES   REMARKS
WASHINGTON NAT MOCLDY    35  14  42 NW15      29.82R WCI  25
DULLES         CLOUDY    30  12  47 NW22G29   29.83R WCI  17
ANDREWS AFB    MOCLDY    34  15  44 NW10      29.79R WCI  26
FT BELVOIR     LGT RAIN  36  14  41 NW9       29.82R WCI  29
QUANTICO       FLURRIES  37  17  44 N13G24    29.83R WCI  29
COLLEGE PARK*  FAIR      34  14  44 NW12G18   29.81R WCI  25
LEESBURG*      CLOUDY    30  18  59 NW24G31   29.85R WCI  16
MANASSAS*      CLOUDY    32  19  59 N15G24    29.83R WCI  22
GAITHERSBURG*  MOCLDY    28  10  47 NW15G23   29.84R WCI  17

$$

MDZ006>007-011-014-102300-
BALTIMORE METRO

CITY           SKY/WX    TMP DP  RH WIND       PRES   REMARKS
BWI AIRPORT    PTCLDY    32  13  45 W14       29.80R WCI  22
MD SCIENCE CTR   N/A     33  12  41 MISG      29.80R
MARTIN STATE   PTCLDY    34  19  55 W16       29.82R WCI  23
ANNAPOLIS      CLEAR     35  16  45 NW10G18   29.80R WCI  27
FORT MEADE*    CLEAR     32  14  47 W9G18     29.82S WCI  24

$$

MDZ012-015-019>023-102300-
MARYLAND EASTERN SHORE

CITY           SKY/WX    TMP DP  RH WIND       PRES   REMARKS
OCEAN CITY     PTCLDY    36  20  52 NW6       29.80R
SALISBURY      CLOUDY    37  19  48 W8        29.79R
BAY BRIDGE AP*   N/A     34  16  47 W16G23    29.81R WCI  23
CAMBRIDGE*     MOCLDY    36  19  51 N6        29.79S
EASTON*        MOCLDY    36  19  51 NW12      29.83R WCI  27

$$

MDZ017>025-102300-
SOUTHERN MARYLAND

CITY           SKY/WX    TMP DP  RH WIND       PRES   REMARKS
PATUXENT RIVER MOCLDY    37  16  42 NW12      29.80R
ST INIGOES     CLOUDY    37  20  50 W7        29.80R
LEONARDTOWN*   CLOUDY    36  18  48 W6        29.81R

$$

MDZ003>005-102300-
NORTH CENTRAL MARYLAND

CITY           SKY/WX    TMP DP  RH WIND       PRES   REMARKS
FREDERICK*     MOCLDY    28  16  59 NW18G24   29.86R WCI  16
HAGERSTOWN APT CLOUDY    26  10  50 W14       29.82R WCI  14
WESTMINSTER*   CLOUDY    28  19  69 W13       29.78R WCI  18

$$

MDZ501>502-102300-
WESTERN MARYLAND

CITY           SKY/WX    TMP DP  RH WIND       PRES   REMARKS
OAKLAND*       CLOUDY    12   7  79 W13       29.71R HAZE    WCI  -3
CUMBERLAND*    MOCLDY    25  10  54 W10       29.91R WCI  15

$$

VAZ025>031-102300-
SHENANDOAH VALLEY

CITY           SKY/WX    TMP DP  RH WIND       PRES   REMARKS
WINCHESTER*    CLOUDY    27  14  59 W17       29.86R WCI  14
FRONT ROYAL*   CLOUDY    27   9  46 W13G18    29.85R WCI  16
LURAY*         CLOUDY    27   5  39 W16G23    29.86R WCI  14
NEW MARKET*    CLOUDY    24   5  44 NW5       29.86R
STAUNTON*      MOCLDY    29   6  38 W14G22    29.87R WCI  18
WAYNESBORO*    CLOUDY    24   2  39 NW13G22   29.83R WCI  12

$$

WVZ021-048>050-054>055-102300-
EASTERN WEST VIRGINIA PANHANDLE

CITY           SKY/WX    TMP DP  RH WIND       PRES   REMARKS
MARTINSBURG    CLOUDY    25  10  53 W16G28    29.86R WCI  12
PETERSBURG*    CLOUDY    23   6  47 W6        29.89R

$$

VAZ036>039-050-102300-
CENTRAL FOOTHILLS

CITY           SKY/WX    TMP DP  RH WIND       PRES   REMARKS
CHARLOTTESVILL CLOUDY    31   6  35 W10G21    29.84R WCI  22
CULPEPER*      CLOUDY    31  12  45 NW12G18   29.85R WCI  21
ORANGE*        CLOUDY    32  10  40 SW18G24   29.85R WCI  20
GORDONSVILLE*  CLOUDY    32   9  37 W7        29.83R
WARRENTON*     CLOUDY    33  19  54 W16G22    29.83R WCI  23

$$

VAZ055>057-102300-
NORTH AND CENTRAL PIEDMONT

CITY           SKY/WX    TMP DP  RH WIND       PRES   REMARKS
FREDERICKSBRG* CLOUDY    37  17  45 NW14      29.81R WCI  28
STAFFORD*      CLOUDY    35  14  42 NW15G22   29.85R WCI  26

$$

NCZ024-NYZ072-PAZ021-071-VAZ022-071-102300-
OTHER REGIONAL OBSERVATIONS

CITY           SKY/WX    TMP DP  RH WIND       PRES   REMARKS
NEW YORK CITY  CLOUDY    37  18  46 MISG      29.68R
PHILADELPHIA   MOCLDY    34  15  46 W15       29.78R WCI  24
PITTSBURGH     LGT SNOW  20  13  74 W13       29.83R WCI   7
ROANOKE        MOCLDY    24   9  52 NW10      29.93R WCI  14
RICHMOND       MOCLDY    38  14  37 W22       29.82R WCI  27
RALEIGH        MOCLDY    36  12  37 W13G24    29.91R WCI  27

$$

ANZ530>537-102300-
MARINE OBSERVATIONS

STATION/POSITION TIME  TEMP    WIND        PRES
                       AIR SEA DIR/SP/G
                 (UTC) (F)     (DEG/KT/KT) (MB)
THOMAS PT LIGHT  2100   35 39  310/ 14/ 16 1009.3R
BALT KEY BRIDGE  2100   33     270/ 16/ 19 1008.8R
COVE POINT       2100   36     280/  9/ 15 1009.2R
LEWISETTA        2100   39 41  300/  9/ 11 1008.5R
SOLOMONS ISLAND  2100   39 41  270/  8/ 11   N/A
PINEY POINT      2100          330/  9/  9   N/A

$$




USA.gov is the U.S. government's official web portal to all federal, state and local government web resources and services.